Simultaneous Nadir Overpasses (SNOs) Predictions

Prediction of SNOs between GOES-16 and METOP-B Satellite Orbit:

Table of predicted SNOs for the next 14.0 days since TLE Epoch: 8/16/2019
Index Date Time (GOES-16) GOES-16 Lat,Lon METOP-B Lat,Lon Distance(km) Time Diff (sec)
1 08/18/2019 02:49:10 -0.01, -75.18 -0.96, -79.42 483.19 80
2 08/19/2019 02:25:51 -0.00, -75.20 0.15, -74.42 87.96 80
3 08/20/2019 14:47:22 0.01, -75.25 0.86, -78.98 425.74 80
4 08/21/2019 14:24:03 0.00, -75.27 -0.26, -73.99 145.73 80
5 08/23/2019 02:45:44 -0.01, -75.28 -0.72, -78.59 376.50 80
6 08/24/2019 02:22:24 -0.00, -75.31 0.40, -73.60 195.06 80
7 08/25/2019 14:43:56 0.01, -75.36 0.61, -78.16 318.16 80
8 08/26/2019 14:20:36 0.01, -75.39 -0.51, -73.17 253.47 80
9 08/28/2019 02:42:17 -0.02, -75.40 -0.53, -77.76 268.39 80
10 08/29/2019 02:18:57 -0.01, -75.43 0.59, -72.77 303.40 80
11 08/30/2019 14:40:28 0.02, -75.49 0.42, -77.33 209.06 80




NCC Satellite Simultaneous Nadir Overpasses (SNOs) Prediction Service
